Time,TemperatureF,DewpointF,PressureIn,WindDirection,WindDirectionDegrees,WindSpeedMPH,WindSpeedGustMPH,Humidity,HourlyPrecipIn,Conditions,Clouds,dailyrainin,SoftwareType,DateUTC
2013-07-21 00:01:00,75.0,70.0,29.85,WNW,300,0.0,2.0,84,0.00,,,0.00,,2013-07-21 04:01:00,
2013-07-21 00:11:00,75.0,71.0,29.85,WNW,300,0.0,1.0,86,0.00,,,0.00,,2013-07-21 04:11:00,
2013-07-21 00:22:00,74.0,70.0,29.85,WNW,300,0.0,0.0,87,0.00,,,0.00,,2013-07-21 04:22:00,
2013-07-21 00:32:00,74.0,70.0,29.85,WNW,300,0.0,0.0,87,0.00,,,0.00,,2013-07-21 04:32:00,
2013-07-21 00:43:00,74.0,71.0,29.85,WNW,300,0.0,1.0,89,0.00,,,0.00,,2013-07-21 04:43:00,
2013-07-21 00:53:00,73.0,70.0,29.85,WNW,300,0.0,0.0,90,0.00,,,0.00,,2013-07-21 04:53:00,
2013-07-21 01:02:00,73.0,70.0,29.85,WNW,300,0.0,0.0,91,0.00,,,0.00,,2013-07-21 05:02:00,
2013-07-21 01:11:00,73.0,70.0,29.85,WNW,300,0.0,0.0,91,0.00,,,0.00,,2013-07-21 05:11:00,
2013-07-21 01:22:00,73.0,70.0,29.85,WNW,300,0.0,0.0,91,0.00,,,0.00,,2013-07-21 05:22:00,
2013-07-21 01:32:00,73.0,70.0,29.85,WNW,300,0.0,0.0,91,0.00,,,0.00,,2013-07-21 05:32:00,
2013-07-21 01:42:00,73.0,70.0,29.85,WNW,300,0.0,0.0,91,0.00,,,0.00,,2013-07-21 05:42:00,
2013-07-21 01:52:00,73.0,71.0,29.86,WNW,300,0.0,0.0,92,0.00,,,0.00,,2013-07-21 05:52:00,
2013-07-21 02:01:00,72.0,70.0,29.86,WNW,300,0.0,0.0,92,0.00,,,0.00,,2013-07-21 06:01:00,
2013-07-21 02:11:00,72.0,70.0,29.86,WNW,300,0.0,1.0,92,0.00,,,0.00,,2013-07-21 06:11:00,
2013-07-21 02:22:00,72.0,70.0,29.86,WNW,300,0.0,0.0,92,0.00,,,0.00,,2013-07-21 06:22:00,
2013-07-21 02:32:00,72.0,70.0,29.85,WNW,300,0.0,0.0,92,0.00,,,0.00,,2013-07-21 06:32:00,
2013-07-21 02:43:00,72.0,70.0,29.85,WNW,300,0.0,0.0,92,0.00,,,0.00,,2013-07-21 06:43:00,
2013-07-21 02:52:00,72.0,69.0,29.86,WNW,300,0.0,0.0,91,0.00,,,0.00,,2013-07-21 06:52:00,
2013-07-21 03:01:00,72.0,69.0,29.86,WNW,300,0.0,0.0,91,0.00,,,0.00,,2013-07-21 07:01:00,
2013-07-21 03:11:00,72.0,70.0,29.86,WNW,300,0.0,0.0,92,0.00,,,0.00,,2013-07-21 07:11:00,
2013-07-21 03:22:00,72.0,70.0,29.86,WNW,300,0.0,0.0,92,0.00,,,0.00,,2013-07-21 07:22:00,
2013-07-21 03:32:00,72.0,69.0,29.85,WNW,300,0.0,0.0,91,0.00,,,0.00,,2013-07-21 07:32:00,
2013-07-21 03:43:00,72.0,69.0,29.85,WNW,300,0.0,0.0,91,0.00,,,0.00,,2013-07-21 07:43:00,
2013-07-21 03:52:00,72.0,69.0,29.85,WNW,300,0.0,0.0,91,0.00,,,0.00,,2013-07-21 07:52:00,
2013-07-21 04:02:00,72.0,69.0,29.85,WNW,300,0.0,0.0,90,0.00,,,0.00,,2013-07-21 08:02:00,
2013-07-21 04:11:00,72.0,69.0,29.85,WNW,300,0.0,0.0,90,0.00,,,0.00,,2013-07-21 08:11:00,
2013-07-21 04:22:00,71.0,68.0,29.85,WNW,300,0.0,0.0,90,0.00,,,0.00,,2013-07-21 08:22:00,
2013-07-21 04:33:00,71.0,68.0,29.86,WNW,300,0.0,0.0,91,0.00,,,0.00,,2013-07-21 08:33:00,
2013-07-21 04:43:00,71.0,68.0,29.86,WNW,300,0.0,0.0,91,0.00,,,0.00,,2013-07-21 08:43:00,
2013-07-21 04:52:00,71.0,68.0,29.86,WNW,300,0.0,1.0,91,0.00,,,0.00,,2013-07-21 08:52:00,
2013-07-21 05:02:00,72.0,69.0,29.87,WNW,300,0.0,0.0,89,0.00,,,0.00,,2013-07-21 09:02:00,
2013-07-21 05:12:00,72.0,69.0,29.87,WNW,300,0.0,1.0,89,0.00,,,0.00,,2013-07-21 09:12:00,
2013-07-21 05:22:00,72.0,69.0,29.86,WNW,300,0.0,0.0,89,0.00,,,0.00,,2013-07-21 09:22:00,
2013-07-21 05:32:00,71.0,67.0,29.88,WNW,300,0.0,0.0,88,0.00,,,0.00,,2013-07-21 09:32:00,
2013-07-21 05:42:00,71.0,67.0,29.88,WNW,300,0.0,1.0,87,0.00,,,0.00,,2013-07-21 09:42:00,
2013-07-21 05:52:00,71.0,65.0,29.88,WNW,300,0.0,1.0,82,0.00,,,0.00,,2013-07-21 09:52:00,
2013-07-21 06:02:00,71.0,65.0,29.88,WNW,300,0.0,1.0,80,0.00,,,0.00,,2013-07-21 10:02:00,
2013-07-21 06:11:00,71.0,66.0,29.88,WNW,300,0.0,1.0,83,0.00,,,0.00,,2013-07-21 10:11:00,
2013-07-21 06:22:00,71.0,66.0,29.88,WNW,300,0.0,0.0,83,0.00,,,0.00,,2013-07-21 10:22:00,
2013-07-21 06:32:00,71.0,65.0,29.88,WNW,300,0.0,1.0,82,0.00,,,0.00,,2013-07-21 10:32:00,
2013-07-21 06:43:00,71.0,65.0,29.88,WNW,300,0.0,1.0,81,0.00,,,0.00,,2013-07-21 10:43:00,
2013-07-21 06:52:00,71.0,66.0,29.89,WNW,300,0.0,0.0,83,0.00,,,0.00,,2013-07-21 10:52:00,
2013-07-21 07:02:00,72.0,67.0,29.89,WNW,300,0.0,1.0,83,0.00,,,0.00,,2013-07-21 11:02:00,
2013-07-21 07:12:00,72.0,66.0,29.89,WNW,300,0.0,1.0,81,0.00,,,0.00,,2013-07-21 11:12:00,
2013-07-21 07:22:00,72.0,67.0,29.90,WNW,300,0.0,1.0,83,0.00,,,0.00,,2013-07-21 11:22:00,
2013-07-21 07:33:00,72.0,67.0,29.90,WNW,300,0.0,1.0,83,0.00,,,0.00,,2013-07-21 11:33:00,
2013-07-21 07:43:00,72.0,66.0,29.90,WNW,300,0.0,0.0,82,0.00,,,0.00,,2013-07-21 11:43:00,
2013-07-21 07:52:00,72.0,66.0,29.91,WNW,300,0.0,0.0,81,0.00,,,0.00,,2013-07-21 11:52:00,
2013-07-21 08:01:00,73.0,65.0,29.91,WNW,300,0.0,1.0,77,0.00,,,0.00,,2013-07-21 12:01:00,
2013-07-21 08:22:00,74.0,66.0,29.91,ENE,63,0.0,5.0,75,0.00,,,0.00,,2013-07-21 12:22:00,
2013-07-21 08:32:00,74.0,66.0,29.92,NE,47,0.0,3.0,76,0.00,,,0.00,,2013-07-21 12:32:00,
2013-07-21 08:43:00,74.0,66.0,29.92,NE,47,0.0,3.0,77,0.00,,,0.00,,2013-07-21 12:43:00,
2013-07-21 08:53:00,75.0,68.0,29.92,NE,47,0.0,1.0,78,0.00,,,0.00,,2013-07-21 12:53:00,
2013-07-21 09:02:00,76.0,67.0,29.93,NE,39,0.0,4.0,75,0.00,,,0.00,,2013-07-21 13:02:00,
2013-07-21 09:22:00,75.0,66.0,29.93,NE,50,1.0,6.0,73,0.00,,,0.00,,2013-07-21 13:22:00,
2013-07-21 09:32:00,76.0,66.0,29.93,NE,50,0.0,1.0,72,0.00,,,0.00,,2013-07-21 13:32:00,
2013-07-21 09:43:00,76.0,67.0,29.93,NE,50,0.0,1.0,73,0.00,,,0.00,,2013-07-21 13:43:00,
2013-07-21 09:52:00,77.0,67.0,29.93,SE,134,1.0,4.0,71,0.00,,,0.00,,2013-07-21 13:52:00,
2013-07-21 10:01:00,77.0,67.0,29.93,SE,136,0.0,1.0,71,0.00,,,0.00,,2013-07-21 14:01:00,
2013-07-21 10:12:00,77.0,66.0,29.93,ENE,60,0.0,7.0,68,0.00,,,0.00,,2013-07-21 14:12:00,
2013-07-21 10:23:00,77.0,65.0,29.93,WSW,250,0.0,5.0,67,0.00,,,0.00,,2013-07-21 14:23:00,
2013-07-21 10:43:00,78.0,66.0,29.93,South,180,1.0,6.0,67,0.00,,,0.00,,2013-07-21 14:43:00,
2013-07-21 10:53:00,78.0,65.0,29.93,SSE,148,0.0,7.0,64,0.00,,,0.00,,2013-07-21 14:53:00,
2013-07-21 11:02:00,79.0,66.0,29.93,ESE,116,1.0,4.0,64,0.00,,,0.00,,2013-07-21 15:02:00,
2013-07-21 11:22:00,79.0,64.0,29.93,SSE,161,1.0,9.0,60,0.00,,,0.00,,2013-07-21 15:22:00,
2013-07-21 11:32:00,80.0,63.0,29.93,ENE,71,0.0,8.0,57,0.00,,,0.00,,2013-07-21 15:32:00,
2013-07-21 11:43:00,81.0,65.0,29.93,SSE,159,0.0,7.0,58,0.00,,,0.00,,2013-07-21 15:43:00,
2013-07-21 11:53:00,81.0,64.0,29.94,ESE,121,0.0,5.0,56,0.00,,,0.00,,2013-07-21 15:53:00,
2013-07-21 12:01:00,81.0,64.0,29.94,South,175,2.0,10.0,56,0.00,,,0.00,,2013-07-21 16:01:00,
2013-07-21 12:22:00,82.0,65.0,29.94,South,171,0.0,4.0,57,0.00,,,0.00,,2013-07-21 16:22:00,
2013-07-21 12:32:00,82.0,65.0,29.94,NNE,19,0.0,5.0,57,0.00,,,0.00,,2013-07-21 16:32:00,
2013-07-21 12:43:00,82.0,66.0,29.94,South,171,1.0,5.0,59,0.00,,,0.00,,2013-07-21 16:43:00,
2013-07-21 12:52:00,82.0,66.0,29.94,South,182,0.0,6.0,59,0.00,,,0.00,,2013-07-21 16:52:00,
2013-07-21 13:02:00,83.0,66.0,29.94,South,182,0.0,2.0,57,0.00,,,0.00,,2013-07-21 17:02:00,
2013-07-21 13:11:00,82.0,66.0,29.94,South,174,0.0,5.0,59,0.00,,,0.00,,2013-07-21 17:11:00,
2013-07-21 13:22:00,83.0,65.0,29.94,ESE,116,0.0,7.0,55,0.00,,,0.00,,2013-07-21 17:22:00,
2013-07-21 13:33:00,83.0,65.0,29.94,ENE,57,0.0,5.0,54,0.00,,,0.00,,2013-07-21 17:33:00,
2013-07-21 13:43:00,83.0,66.0,29.94,South,181,0.0,6.0,56,0.00,,,0.00,,2013-07-21 17:43:00,
2013-07-21 13:53:00,83.0,66.0,29.94,South,183,1.0,4.0,56,0.00,,,0.00,,2013-07-21 17:53:00,
2013-07-21 14:01:00,83.0,65.0,29.94,South,183,0.0,1.0,55,0.00,,,0.00,,2013-07-21 18:01:00,
2013-07-21 14:22:00,84.0,66.0,29.94,SE,144,0.0,9.0,55,0.00,,,0.00,,2013-07-21 18:22:00,
2013-07-21 14:32:00,84.0,67.0,29.93,SE,130,0.0,1.0,56,0.00,,,0.00,,2013-07-21 18:32:00,
2013-07-21 14:43:00,84.0,65.0,29.93,SW,224,0.0,4.0,53,0.00,,,0.00,,2013-07-21 18:43:00,
2013-07-21 14:52:00,84.0,66.0,29.94,South,186,0.0,4.0,54,0.00,,,0.00,,2013-07-21 18:52:00,
2013-07-21 15:01:00,85.0,67.0,29.93,South,180,2.0,5.0,55,0.00,,,0.00,,2013-07-21 19:01:00,
2013-07-21 15:11:00,85.0,67.0,29.93,South,180,2.0,5.0,55,0.00,,,0.00,,2013-07-21 19:11:00,
2013-07-21 15:22:00,85.0,67.0,29.93,South,180,2.0,5.0,55,0.00,,,0.00,,2013-07-21 19:22:00,
2013-07-21 15:32:00,84.0,65.0,29.93,SSE,155,0.0,1.0,53,0.00,,,0.00,,2013-07-21 19:32:00,
2013-07-21 15:42:00,84.0,67.0,29.93,SSE,155,0.0,1.0,56,0.00,,,0.00,,2013-07-21 19:42:00,
2013-07-21 15:52:00,85.0,69.0,29.93,SSE,151,0.0,2.0,59,0.00,,,0.00,,2013-07-21 19:52:00,
2013-07-21 16:02:00,85.0,67.0,29.93,South,184,1.0,4.0,55,0.00,,,0.00,,2013-07-21 20:02:00,
2013-07-21 16:12:00,84.0,67.0,29.93,SSE,149,0.0,4.0,56,0.00,,,0.00,,2013-07-21 20:12:00,
2013-07-21 16:22:00,85.0,66.0,29.92,SSE,149,0.0,2.0,54,0.00,,,0.00,,2013-07-21 20:22:00,
2013-07-21 16:32:00,85.0,66.0,29.92,WSW,258,0.0,1.0,53,0.00,,,0.00,,2013-07-21 20:32:00,
2013-07-21 16:43:00,85.0,68.0,29.92,South,188,0.0,2.0,56,0.00,,,0.00,,2013-07-21 20:43:00,
2013-07-21 16:52:00,84.0,70.0,29.92,South,188,0.0,1.0,63,0.00,,,0.00,,2013-07-21 20:52:00,
2013-07-21 17:01:00,84.0,70.0,29.92,South,188,0.0,1.0,63,0.00,,,0.00,,2013-07-21 21:01:00,
2013-07-21 17:11:00,83.0,70.0,29.91,South,188,0.0,1.0,64,0.00,,,0.00,,2013-07-21 21:11:00,
2013-07-21 17:22:00,82.0,70.0,29.91,South,187,0.0,1.0,68,0.00,,,0.00,,2013-07-21 21:22:00,
2013-07-21 17:32:00,81.0,70.0,29.91,South,187,0.0,1.0,69,0.00,,,0.00,,2013-07-21 21:32:00,
2013-07-21 17:43:00,81.0,70.0,29.91,South,187,0.0,1.0,70,0.00,,,0.00,,2013-07-21 21:43:00,
2013-07-21 17:52:00,81.0,71.0,29.91,South,187,0.0,0.0,71,0.00,,,0.00,,2013-07-21 21:52:00,
2013-07-21 18:01:00,80.0,69.0,29.91,South,187,0.0,0.0,70,0.00,,,0.00,,2013-07-21 22:01:00,
2013-07-21 18:11:00,80.0,70.0,29.91,South,187,0.0,1.0,71,0.00,,,0.00,,2013-07-21 22:11:00,
2013-07-21 18:22:00,80.0,70.0,29.91,South,187,0.0,1.0,71,0.00,,,0.00,,2013-07-21 22:22:00,
2013-07-21 18:32:00,82.0,70.0,29.91,South,187,0.0,2.0,68,0.00,,,0.00,,2013-07-21 22:32:00,
2013-07-21 18:43:00,82.0,69.0,29.91,South,179,0.0,4.0,65,0.00,,,0.00,,2013-07-21 22:43:00,
2013-07-21 18:52:00,81.0,69.0,29.91,SSE,160,1.0,5.0,66,0.00,,,0.00,,2013-07-21 22:52:00,
2013-07-21 19:02:00,81.0,69.0,29.91,SSE,159,0.0,5.0,67,0.00,,,0.00,,2013-07-21 23:02:00,
2013-07-21 19:11:00,81.0,69.0,29.91,South,172,0.0,2.0,66,0.00,,,0.00,,2013-07-21 23:11:00,
2013-07-21 19:22:00,80.0,68.0,29.92,SSE,168,1.0,3.0,68,0.00,,,0.00,,2013-07-21 23:22:00,
2013-07-21 19:32:00,80.0,68.0,29.91,SSE,161,0.0,4.0,66,0.00,,,0.00,,2013-07-21 23:32:00,
2013-07-21 19:42:00,79.0,67.0,29.91,SSE,165,0.0,1.0,67,0.00,,,0.00,,2013-07-21 23:42:00,
2013-07-21 19:53:00,79.0,67.0,29.91,SSE,165,0.0,1.0,67,0.00,,,0.00,,2013-07-21 23:53:00,
2013-07-21 20:01:00,79.0,67.0,29.91,SSE,165,0.0,1.0,67,0.00,,,0.00,,2013-07-22 00:01:00,
2013-07-21 20:11:00,78.0,67.0,29.91,SSE,167,0.0,4.0,68,0.00,,,0.00,,2013-07-22 00:11:00,
2013-07-21 20:22:00,78.0,67.0,29.92,South,173,1.0,6.0,69,0.00,,,0.00,,2013-07-22 00:22:00,
2013-07-21 20:32:00,77.0,67.0,29.93,South,172,0.0,1.0,71,0.00,,,0.00,,2013-07-22 00:32:00,
2013-07-21 20:52:00,77.0,68.0,29.93,South,171,0.0,1.0,73,0.00,,,0.00,,2013-07-22 00:52:00,
2013-07-21 21:02:00,76.0,67.0,29.94,South,171,0.0,3.0,74,0.00,,,0.00,,2013-07-22 01:02:00,
2013-07-21 21:12:00,76.0,67.0,29.94,South,171,0.0,3.0,74,0.00,,,0.00,,2013-07-22 01:12:00,
2013-07-21 21:22:00,76.0,67.0,29.95,South,170,0.0,1.0,73,0.00,,,0.00,,2013-07-22 01:22:00,
2013-07-21 21:32:00,75.0,67.0,29.95,South,170,0.0,0.0,75,0.00,,,0.00,,2013-07-22 01:32:00,
2013-07-21 21:42:00,74.0,66.0,29.95,South,170,0.0,1.0,75,0.00,,,0.00,,2013-07-22 01:42:00,
2013-07-21 21:52:00,74.0,66.0,29.96,South,170,0.0,0.0,76,0.00,,,0.00,,2013-07-22 01:52:00,
2013-07-21 22:02:00,73.0,65.0,29.96,South,170,0.0,0.0,76,0.00,,,0.00,,2013-07-22 02:02:00,
2013-07-21 22:11:00,73.0,65.0,29.96,South,170,0.0,0.0,77,0.00,,,0.00,,2013-07-22 02:11:00,
2013-07-21 22:22:00,72.0,65.0,29.95,South,170,0.0,0.0,78,0.00,,,0.00,,2013-07-22 02:22:00,
2013-07-21 22:32:00,71.0,65.0,29.96,South,170,0.0,0.0,81,0.00,,,0.00,,2013-07-22 02:32:00,
2013-07-21 22:43:00,71.0,65.0,29.96,South,170,0.0,1.0,82,0.00,,,0.00,,2013-07-22 02:43:00,
2013-07-21 22:52:00,70.0,64.0,29.96,South,170,0.0,0.0,82,0.00,,,0.00,,2013-07-22 02:52:00,
2013-07-21 23:01:00,70.0,65.0,29.96,South,170,0.0,0.0,83,0.00,,,0.00,,2013-07-22 03:01:00,
2013-07-21 23:12:00,70.0,65.0,29.96,South,170,0.0,0.0,84,0.00,,,0.00,,2013-07-22 03:12:00,
2013-07-21 23:22:00,70.0,65.0,29.96,South,170,0.0,0.0,84,0.00,,,0.00,,2013-07-22 03:22:00,
2013-07-21 23:33:00,70.0,65.0,29.96,South,170,0.0,0.0,85,0.00,,,0.00,,2013-07-22 03:33:00,
2013-07-21 23:43:00,70.0,65.0,29.96,South,170,0.0,0.0,85,0.00,,,0.00,,2013-07-22 03:43:00,
2013-07-21 23:53:00,70.0,65.0,29.95,South,170,0.0,0.0,85,0.00,,,0.00,,2013-07-22 03:53:00,